NOAA NWS Hourly Roundups by Site

Regional Weather Roundup for Omaha, NE

To Select Another Site Choose from List

Select Site:  

104
ASUS43 KOAX 290503
RWRNE

WEATHER ROUNDUP FOR NEBRASKA
NATIONAL WEATHER SERVICE OMAHA NE
1100 PM CST SAT NOV 28 2020

NOTES: SATELLITE DATA IS BEING USED TO AUGMENT CLOUD COVER ABOVE
       12000 FEET.
       "FAIR" INDICATES FEW OR NO CLOUDS BELOW 12,000 FEET WITH NO
       SIGNIFICANT WEATHER AND/OR OBSTRUCTIONS TO VISIBILITY.


NEZ001>004-019>022-054>056-290600-
NEBRASKA PANHANDLE

CITY           SKY/WX    TMP DP  RH WIND       PRES   REMARKS
SCOTTSBLUFF    CLEAR     36  12  37 W9        30.10R WCI  29
ALLIANCE       CLEAR     30  16  56 N14       30.09R WCI  19
CHADRON        CLEAR     34  13  41 NE7       30.17R WCI  28
GORDON         FAIR      37  11  35 N17G23    30.10R WCI  27
KIMBALL        CLEAR     32  10  40 NW13      30.08R WCI  23
SIDNEY         CLEAR     29  14  53 NW14      30.04R WCI  18
$$

NEZ057>060-069>072-079>082-290600-
SOUTHWEST NEBRASKA

CITY           SKY/WX    TMP DP  RH WIND       PRES   REMARKS
NORTH PLATTE   PTCLDY    26  17  68 W6        30.02R WCI  19
IMPERIAL       CLEAR     29  15  56 SW6       30.02R WCI  23
LEXINGTON      PTCLDY    27  19  71 SW5       30.00R WCI  22
MCCOOK         CLEAR     40  29  64 W15       30.03R WCI  32
OGALLALA       CLEAR     22  16  79 W5        30.03R WCI  16
$$

NEZ005>010-023>029-035>040-094-290600-
NORTH CENTRAL NEBRASKA

CITY           SKY/WX    TMP DP  RH WIND       PRES   REMARKS
VALENTINE      CLEAR     44  15  31 N16       30.06R
AINSWORTH      CLEAR     37  17  43 NW14      30.03R WCI  28
BROKEN BOW     CLEAR     39  22  50 NW8       29.97R WCI  33
O`NEILL        CLEAR     35  22  57 W7        29.97R WCI  29
ORD            CLEAR     27  20  75 CALM      29.96R
THEDFORD       CLEAR     32  19  58 W10       30.03R WCI  24
$$

NEZ041-046>049-061>064-073>077-083>087-290600-
SOUTH CENTRAL NEBRASKA

CITY           SKY/WX    TMP DP  RH WIND       PRES   REMARKS
GRAND ISLAND   CLEAR     33  24  69 SW8       29.98R WCI  26
AURORA         CLEAR     33  28  82 SW7       29.98R WCI  27
HASTINGS       CLEAR     37  27  67 SW7       29.99R WCI  32
HEBRON         CLEAR     41  32  71 SW10      30.02R
HOLDREGE       CLEAR     41  28  60 W13       30.00S
KEARNEY        CLEAR     34  24  67 SW12      29.99R WCI  25
YORK           CLEAR     32  28  86 SW8       29.98R WCI  25
$$

NEZ011>018-030>034-042>045-290600-
NORTHEAST NEBRASKA

CITY           SKY/WX    TMP DP  RH WIND       PRES   REMARKS
NORFOLK        CLEAR     31  24  75 CALM      29.94S
ALBION         CLEAR     37  25  61 NW6       29.96S WCI  32
BLAIR          CLEAR     39  31  73 S5        29.97S
COLUMBUS       CLEAR     27  25  92 S5        29.97R WCI  22
FREMONT        CLEAR     40  32  73 S3        29.97S
TEKAMAH        CLEAR     31  28  89 S8        29.96F WCI  23
WAYNE          CLEAR     31  26  84 S3        29.94R
$$

NEZ050>053-065>068-078-088>093-290600-
SOUTHEAST NEBRASKA

CITY           SKY/WX    TMP DP  RH WIND       PRES   REMARKS
LINCOLN        CLEAR     37  28  70 S3        30.00S
OMAHA EPPLEY   CLEAR     37  31  78 SE8       29.99S WCI  31
BEATRICE       CLEAR     39  32  77 S9        30.02R WCI  32
FALLS CITY     CLEAR     40  30  67 S13       30.04R WCI  32
NEBRASKA CITY  CLEAR     38  32  80 SW13      30.01R WCI  30
PLATTSMOUTH    CLEAR     39  32  75 S12       29.99S WCI  32
$$

NEZ044-045-051>053-067-290600-
OMAHA AREA

CITY           SKY/WX    TMP DP  RH WIND       PRES   REMARKS
OMAHA EPPLEY   CLEAR     37  31  78 SE8       29.99S WCI  31
BLAIR          CLEAR     39  31  73 S5        29.97S
FREMONT        CLEAR     40  32  73 S3        29.97S
MILLARD        CLEAR     39  31  74 CALM      29.99R
OFFUTT AFB     CLEAR     30  25  83 CALM      29.99S
PLATTSMOUTH    CLEAR     39  32  75 S12       29.99S WCI  32
WAHOO          FAIR      35  30  83 S6        29.97S WCI  29
$$



 

View Past Reports for Omaha, NE.

Products Courtesy of NOAA-NWS
NWS Information Parsing Script by Ken True at Saratoga Weather - Script by SE Lincoln Weather.